Year,Month,Day,Hour,Minute,Value (Times are PST for temperature in C)
2019,04,04,00,00,7.00
2019,04,04,00,01,7.00
2019,04,04,00,02,6.90
2019,04,04,00,03,6.90
2019,04,04,00,04,6.90
2019,04,04,00,05,6.90
2019,04,04,00,06,6.90
2019,04,04,00,07,6.90
2019,04,04,00,08,6.90
2019,04,04,00,09,6.80
2019,04,04,00,10,6.80
2019,04,04,00,11,6.80
2019,04,04,00,12,6.70
2019,04,04,00,13,6.70
2019,04,04,00,14,6.70
2019,04,04,00,15,6.80
2019,04,04,00,16,6.90
2019,04,04,00,17,6.90
2019,04,04,00,18,7.00
2019,04,04,00,19,7.00
2019,04,04,00,20,7.00
2019,04,04,00,21,7.10
2019,04,04,00,22,7.10
2019,04,04,00,23,7.20
2019,04,04,00,24,7.20
2019,04,04,00,25,7.20
2019,04,04,00,26,7.20
2019,04,04,00,27,7.20
2019,04,04,00,28,7.20
2019,04,04,00,29,7.20
2019,04,04,00,30,7.30
2019,04,04,00,31,7.30
2019,04,04,00,32,7.30
2019,04,04,00,33,7.30
2019,04,04,00,34,7.20
2019,04,04,00,35,7.20
2019,04,04,00,36,7.20
2019,04,04,00,37,7.20
2019,04,04,00,38,7.20
2019,04,04,00,39,7.20
2019,04,04,00,40,7.20
2019,04,04,00,41,7.20
2019,04,04,00,42,7.20
2019,04,04,00,43,7.30
2019,04,04,00,44,7.30
2019,04,04,00,45,7.30
2019,04,04,00,46,7.40
2019,04,04,00,47,7.40
2019,04,04,00,48,7.50
2019,04,04,00,49,7.50
2019,04,04,00,50,7.60
2019,04,04,00,51,7.60
2019,04,04,00,52,7.60
2019,04,04,00,53,7.70
2019,04,04,00,54,7.70
2019,04,04,00,55,7.70
2019,04,04,00,56,7.80
2019,04,04,00,57,7.80
2019,04,04,00,58,7.80
2019,04,04,00,59,7.90
2019,04,04,01,00,7.90
2019,04,04,01,01,7.90
2019,04,04,01,02,8.00
2019,04,04,01,03,8.00
2019,04,04,01,04,8.00
2019,04,04,01,05,8.10
2019,04,04,01,06,8.20
2019,04,04,01,07,8.20
2019,04,04,01,08,8.20
2019,04,04,01,09,8.20
2019,04,04,01,10,8.20
2019,04,04,01,11,8.10
2019,04,04,01,12,8.10
2019,04,04,01,13,8.10
2019,04,04,01,14,8.00
2019,04,04,01,15,8.00
2019,04,04,01,16,8.00
2019,04,04,01,17,8.00
2019,04,04,01,18,8.00
2019,04,04,01,19,8.00
2019,04,04,01,20,8.00
2019,04,04,01,21,8.00
2019,04,04,01,22,8.00
2019,04,04,01,23,8.00
2019,04,04,01,24,7.90
2019,04,04,01,25,8.00
2019,04,04,01,26,7.90
2019,04,04,01,27,8.00
2019,04,04,01,28,8.00
2019,04,04,01,29,8.00
2019,04,04,01,30,8.00
2019,04,04,01,31,8.00
2019,04,04,01,32,8.00
2019,04,04,01,33,8.00
2019,04,04,01,34,8.10
2019,04,04,01,35,8.00
2019,04,04,01,36,8.00
2019,04,04,01,37,8.10
2019,04,04,01,38,8.10
2019,04,04,01,39,8.20
2019,04,04,01,40,8.20
2019,04,04,01,41,8.30
2019,04,04,01,42,8.30
2019,04,04,01,43,8.30
2019,04,04,01,44,8.30
2019,04,04,01,45,8.30
2019,04,04,01,46,8.30
2019,04,04,01,47,8.40
2019,04,04,01,48,8.40
2019,04,04,01,49,8.40
2019,04,04,01,50,8.40
2019,04,04,01,51,8.40
2019,04,04,01,52,8.40
2019,04,04,01,53,8.40
2019,04,04,01,54,8.30
2019,04,04,01,55,8.30
2019,04,04,01,56,8.30
2019,04,04,01,57,8.30
2019,04,04,01,58,8.30
2019,04,04,01,59,8.30
2019,04,04,02,00,8.30
2019,04,04,02,01,8.30
2019,04,04,02,02,8.30
2019,04,04,02,03,8.30
2019,04,04,02,04,8.30
2019,04,04,02,05,8.30
2019,04,04,02,06,8.20
2019,04,04,02,07,8.20
2019,04,04,02,08,8.20
2019,04,04,02,09,8.20
2019,04,04,02,10,8.20
2019,04,04,02,11,8.20
2019,04,04,02,12,8.20
2019,04,04,02,13,8.20
2019,04,04,02,14,8.20
2019,04,04,02,15,8.20
2019,04,04,02,16,8.20
2019,04,04,02,17,8.20
2019,04,04,02,18,8.20
2019,04,04,02,19,8.10
2019,04,04,02,20,8.10
2019,04,04,02,21,8.10
2019,04,04,02,22,8.10
2019,04,04,02,23,8.10
2019,04,04,02,24,8.10
2019,04,04,02,25,8.10
2019,04,04,02,26,8.10
2019,04,04,02,27,8.10
2019,04,04,02,28,8.10
2019,04,04,02,29,8.10
2019,04,04,02,30,8.10
2019,04,04,02,31,8.10
2019,04,04,02,32,8.10
2019,04,04,02,33,8.10
2019,04,04,02,34,8.10
2019,04,04,02,35,8.10
2019,04,04,02,36,8.10
2019,04,04,02,37,8.10
2019,04,04,02,38,8.10
2019,04,04,02,39,8.10
2019,04,04,02,40,8.10
2019,04,04,02,41,8.10
2019,04,04,02,42,8.10
2019,04,04,02,43,8.10
2019,04,04,02,44,8.10
2019,04,04,02,45,8.10
2019,04,04,02,46,8.00
2019,04,04,02,47,8.00
2019,04,04,02,48,8.00
2019,04,04,02,49,8.00
2019,04,04,02,50,8.00
2019,04,04,02,51,8.00
2019,04,04,02,52,8.00
2019,04,04,02,53,8.00
2019,04,04,02,54,8.00
2019,04,04,02,55,8.00
2019,04,04,02,56,8.00
2019,04,04,02,57,8.00
2019,04,04,02,58,7.90
2019,04,04,02,59,7.90
2019,04,04,03,00,7.90
2019,04,04,03,01,7.90
2019,04,04,03,02,8.00
2019,04,04,03,03,8.00
2019,04,04,03,04,8.00
2019,04,04,03,05,8.00
2019,04,04,03,06,8.00
2019,04,04,03,07,8.00
2019,04,04,03,08,8.00
2019,04,04,03,09,8.00
2019,04,04,03,10,8.00
2019,04,04,03,11,8.10
2019,04,04,03,12,8.10
2019,04,04,03,13,8.00
2019,04,04,03,14,8.00
2019,04,04,03,15,8.00
2019,04,04,03,16,8.00
2019,04,04,03,17,8.00
2019,04,04,03,18,8.00
2019,04,04,03,19,8.00
2019,04,04,03,20,8.00
2019,04,04,03,21,7.90
2019,04,04,03,22,8.00
2019,04,04,03,23,8.00
2019,04,04,03,24,8.00
2019,04,04,03,25,8.00
2019,04,04,03,26,8.00
2019,04,04,03,27,8.00
2019,04,04,03,28,8.00
2019,04,04,03,29,8.00
2019,04,04,03,30,7.90
2019,04,04,03,31,7.90
2019,04,04,03,32,7.90
2019,04,04,03,33,7.90
2019,04,04,03,34,7.90
2019,04,04,03,35,7.90
2019,04,04,03,36,7.90
2019,04,04,03,37,7.90
2019,04,04,03,38,7.90
2019,04,04,03,39,7.90
2019,04,04,03,40,7.90
2019,04,04,03,41,7.90
2019,04,04,03,42,7.90
2019,04,04,03,43,7.80
2019,04,04,03,44,7.80
2019,04,04,03,45,7.80
2019,04,04,03,46,7.80
2019,04,04,03,47,7.90
2019,04,04,03,48,7.80
2019,04,04,03,49,7.80
2019,04,04,03,50,7.80
2019,04,04,03,51,7.80
2019,04,04,03,52,7.80
2019,04,04,03,53,7.80
2019,04,04,03,54,7.80
2019,04,04,03,55,7.80
2019,04,04,03,56,7.80
2019,04,04,03,57,7.80
2019,04,04,03,58,7.80
2019,04,04,03,59,7.80
2019,04,04,04,00,7.80
2019,04,04,04,01,7.80
2019,04,04,04,02,7.80
2019,04,04,04,03,7.80
2019,04,04,04,04,7.80
2019,04,04,04,05,7.80
2019,04,04,04,06,7.70
2019,04,04,04,07,7.70
2019,04,04,04,08,7.70
2019,04,04,04,09,7.70
2019,04,04,04,10,7.70
2019,04,04,04,11,7.70
2019,04,04,04,12,7.70
2019,04,04,04,13,7.70
2019,04,04,04,14,7.70
2019,04,04,04,15,7.70
2019,04,04,04,16,7.70
2019,04,04,04,17,7.70
2019,04,04,04,18,7.70
2019,04,04,04,19,7.70
2019,04,04,04,20,7.70
2019,04,04,04,21,7.70
2019,04,04,04,22,7.70
2019,04,04,04,23,7.70
2019,04,04,04,24,7.70
2019,04,04,04,25,7.70
2019,04,04,04,26,7.60
2019,04,04,04,27,7.60
2019,04,04,04,28,7.60
2019,04,04,04,29,7.60
2019,04,04,04,30,7.60
2019,04,04,04,31,7.60
2019,04,04,04,32,7.60
2019,04,04,04,33,7.60
2019,04,04,04,34,7.60
2019,04,04,04,35,7.60
2019,04,04,04,36,7.60
2019,04,04,04,37,7.60
2019,04,04,04,38,7.60
2019,04,04,04,39,7.50
2019,04,04,04,40,7.50
2019,04,04,04,41,7.50
2019,04,04,04,42,7.50
2019,04,04,04,43,7.50
2019,04,04,04,44,7.50
2019,04,04,04,45,7.50
2019,04,04,04,46,7.50
2019,04,04,04,47,7.50
2019,04,04,04,48,7.50
2019,04,04,04,49,7.40
2019,04,04,04,50,7.40
2019,04,04,04,51,7.40
2019,04,04,04,52,7.40
2019,04,04,04,53,7.40
2019,04,04,04,54,7.40
2019,04,04,04,55,7.40
2019,04,04,04,56,7.40
2019,04,04,04,57,7.40
2019,04,04,04,58,7.40
2019,04,04,04,59,7.40
2019,04,04,05,00,7.30
2019,04,04,05,01,7.30
2019,04,04,05,02,7.30
2019,04,04,05,03,7.30
2019,04,04,05,04,7.30
2019,04,04,05,05,7.30
2019,04,04,05,06,7.30
2019,04,04,05,07,7.20
2019,04,04,05,08,7.20
2019,04,04,05,09,7.20
2019,04,04,05,10,7.20
2019,04,04,05,11,7.30
2019,04,04,05,12,7.30
2019,04,04,05,13,7.30
2019,04,04,05,14,7.30
2019,04,04,05,15,7.30
2019,04,04,05,16,7.30
2019,04,04,05,17,7.30
2019,04,04,05,18,7.30
2019,04,04,05,19,7.30
2019,04,04,05,20,7.30
2019,04,04,05,21,7.30
2019,04,04,05,22,7.30
2019,04,04,05,23,7.30
2019,04,04,05,24,7.30
2019,04,04,05,25,7.40
2019,04,04,05,26,7.40
2019,04,04,05,27,7.40
2019,04,04,05,28,7.40
2019,04,04,05,29,7.40
2019,04,04,05,30,7.40
2019,04,04,05,31,7.50
2019,04,04,05,32,7.50
2019,04,04,05,33,7.50
2019,04,04,05,34,7.50
2019,04,04,05,35,7.40
2019,04,04,05,36,7.40
2019,04,04,05,37,7.30
2019,04,04,05,38,7.30
2019,04,04,05,39,7.20
2019,04,04,05,40,7.20
2019,04,04,05,41,7.10
2019,04,04,05,42,7.10
2019,04,04,05,43,7.00
2019,04,04,05,44,7.00
2019,04,04,05,45,6.90
2019,04,04,05,46,6.90
2019,04,04,05,47,6.90
2019,04,04,05,48,6.90
2019,04,04,05,49,6.90
2019,04,04,05,50,6.80
2019,04,04,05,51,6.80
2019,04,04,05,52,6.80
2019,04,04,05,53,6.80
2019,04,04,05,54,6.80
2019,04,04,05,55,6.80
2019,04,04,05,56,6.80
2019,04,04,05,57,6.80
2019,04,04,05,58,6.80
2019,04,04,05,59,6.80
2019,04,04,06,00,6.80
2019,04,04,06,01,6.80
2019,04,04,06,02,6.80
2019,04,04,06,03,6.70
2019,04,04,06,04,6.70
2019,04,04,06,05,6.70
2019,04,04,06,06,6.70
2019,04,04,06,07,6.70
2019,04,04,06,08,6.70
2019,04,04,06,09,6.70
2019,04,04,06,10,6.70
2019,04,04,06,11,6.70
2019,04,04,06,12,6.60
2019,04,04,06,13,6.60
2019,04,04,06,14,6.60
2019,04,04,06,15,6.60
2019,04,04,06,16,6.60
2019,04,04,06,17,6.60
2019,04,04,06,18,6.60
2019,04,04,06,19,6.60
2019,04,04,06,20,6.70
2019,04,04,06,21,6.70
2019,04,04,06,22,6.70
2019,04,04,06,23,6.70
2019,04,04,06,24,6.70
2019,04,04,06,25,6.70
2019,04,04,06,26,6.70
2019,04,04,06,27,6.60
2019,04,04,06,28,6.60
2019,04,04,06,29,6.60
2019,04,04,06,30,6.60
2019,04,04,06,31,6.60
2019,04,04,06,32,6.60
2019,04,04,06,33,6.50
2019,04,04,06,34,6.50
2019,04,04,06,35,6.50
2019,04,04,06,36,6.40
2019,04,04,06,37,6.40
2019,04,04,06,38,6.50
2019,04,04,06,39,6.50
2019,04,04,06,40,6.50
2019,04,04,06,41,6.60
2019,04,04,06,42,6.60
2019,04,04,06,43,6.50
2019,04,04,06,44,6.50
2019,04,04,06,45,6.40
2019,04,04,06,46,6.40
2019,04,04,06,47,6.40
2019,04,04,06,48,6.40
2019,04,04,06,49,6.40
2019,04,04,06,50,6.40
2019,04,04,06,51,6.50
2019,04,04,06,52,6.60
2019,04,04,06,53,6.60
2019,04,04,06,54,6.60
2019,04,04,06,55,6.60
2019,04,04,06,56,6.60
2019,04,04,06,57,6.60
2019,04,04,06,58,6.60
2019,04,04,06,59,6.60
2019,04,04,07,00,6.60
2019,04,04,07,01,6.60
2019,04,04,07,02,6.60
2019,04,04,07,03,6.60
2019,04,04,07,04,6.60
2019,04,04,07,05,6.60
2019,04,04,07,06,6.60
2019,04,04,07,07,6.60
2019,04,04,07,08,6.60
2019,04,04,07,09,6.60
2019,04,04,07,10,6.60
2019,04,04,07,11,6.60
2019,04,04,07,12,6.60
2019,04,04,07,13,6.50
2019,04,04,07,14,6.60
2019,04,04,07,15,6.50
2019,04,04,07,16,6.60
2019,04,04,07,17,6.60
2019,04,04,07,18,6.60
2019,04,04,07,19,6.60
2019,04,04,07,20,6.60
2019,04,04,07,21,6.60
2019,04,04,07,22,6.70
2019,04,04,07,23,6.70
2019,04,04,07,24,6.70
2019,04,04,07,25,6.70
2019,04,04,07,26,6.70
2019,04,04,07,27,6.70
2019,04,04,07,28,6.70
2019,04,04,07,29,6.70
2019,04,04,07,30,6.70
2019,04,04,07,31,6.70
2019,04,04,07,32,6.70
2019,04,04,07,33,6.80
2019,04,04,07,34,6.80
2019,04,04,07,35,6.80
2019,04,04,07,36,6.80
2019,04,04,07,37,6.80
2019,04,04,07,38,6.90
2019,04,04,07,39,6.90
2019,04,04,07,40,6.90
2019,04,04,07,41,6.90
2019,04,04,07,42,6.90
2019,04,04,07,43,6.90
2019,04,04,07,44,6.90
2019,04,04,07,45,7.00
2019,04,04,07,46,7.00
2019,04,04,07,47,7.10
2019,04,04,07,48,7.10
2019,04,04,07,49,7.20
2019,04,04,07,50,7.20
2019,04,04,07,51,7.30
2019,04,04,07,52,7.30
2019,04,04,07,53,7.30
2019,04,04,07,54,7.30
2019,04,04,07,55,7.30
2019,04,04,07,56,7.30
2019,04,04,07,57,7.30
2019,04,04,07,58,7.30
2019,04,04,07,59,7.30
2019,04,04,08,00,7.40
2019,04,04,08,01,7.40
2019,04,04,08,02,7.40
2019,04,04,08,03,7.40
2019,04,04,08,04,7.50
2019,04,04,08,05,7.50
2019,04,04,08,06,7.60
2019,04,04,08,07,7.60
2019,04,04,08,08,7.60
2019,04,04,08,09,7.70
2019,04,04,08,10,7.70
2019,04,04,08,11,7.80
2019,04,04,08,12,7.80
2019,04,04,08,13,7.80
2019,04,04,08,14,7.80
2019,04,04,08,15,7.90
2019,04,04,08,16,7.90
2019,04,04,08,17,7.90
2019,04,04,08,18,8.00
2019,04,04,08,19,8.00
2019,04,04,08,20,8.10
2019,04,04,08,21,8.10
2019,04,04,08,22,8.10
2019,04,04,08,23,8.10
2019,04,04,08,24,8.10
2019,04,04,08,25,8.10
2019,04,04,08,26,8.10
2019,04,04,08,27,8.10
2019,04,04,08,28,8.10
2019,04,04,08,29,8.10
2019,04,04,08,30,8.10
2019,04,04,08,31,8.20
2019,04,04,08,32,8.20
2019,04,04,08,33,8.20
2019,04,04,08,34,8.20
2019,04,04,08,35,8.20
2019,04,04,08,36,8.20
2019,04,04,08,37,8.20
2019,04,04,08,38,8.20
2019,04,04,08,39,8.30
2019,04,04,08,40,8.30
2019,04,04,08,41,8.30
2019,04,04,08,42,8.30
2019,04,04,08,43,8.30
2019,04,04,08,44,8.30
2019,04,04,08,45,8.30
2019,04,04,08,46,8.30
2019,04,04,08,47,8.30
2019,04,04,08,48,8.40
2019,04,04,08,49,8.40
2019,04,04,08,50,8.40
2019,04,04,08,51,8.40
2019,04,04,08,52,8.50
2019,04,04,08,53,8.50
2019,04,04,08,54,8.50
2019,04,04,08,55,8.60
2019,04,04,08,56,8.60
2019,04,04,08,57,8.60
2019,04,04,08,58,8.60
2019,04,04,08,59,8.70
2019,04,04,09,00,8.70
2019,04,04,09,01,8.80
2019,04,04,09,02,8.80
2019,04,04,09,03,8.80
2019,04,04,09,04,8.90
2019,04,04,09,05,9.00
2019,04,04,09,06,9.00
2019,04,04,09,07,9.00
2019,04,04,09,08,9.10
2019,04,04,09,09,9.10
2019,04,04,09,10,9.20
2019,04,04,09,11,9.30
2019,04,04,09,12,9.30
2019,04,04,09,13,9.30
2019,04,04,09,14,9.40
2019,04,04,09,15,9.40
2019,04,04,09,16,9.50
2019,04,04,09,17,9.60
2019,04,04,09,18,9.60
2019,04,04,09,19,9.60
2019,04,04,09,20,9.70
2019,04,04,09,21,9.70
2019,04,04,09,22,9.70
2019,04,04,09,23,9.80
2019,04,04,09,24,9.80
2019,04,04,09,25,9.90
2019,04,04,09,26,9.90
2019,04,04,09,27,10.00
2019,04,04,09,28,10.00
2019,04,04,09,29,10.10
2019,04,04,09,30,10.10
2019,04,04,09,31,10.10
2019,04,04,09,32,10.10
2019,04,04,09,33,10.10
2019,04,04,09,34,10.10
2019,04,04,09,35,10.10
2019,04,04,09,36,10.20
2019,04,04,09,37,10.20
2019,04,04,09,38,10.10
2019,04,04,09,39,10.10
2019,04,04,09,40,10.10
2019,04,04,09,41,10.10
2019,04,04,09,42,10.10
2019,04,04,09,43,10.10
2019,04,04,09,44,10.10
2019,04,04,09,45,10.10
2019,04,04,09,46,10.10
2019,04,04,09,47,10.10
2019,04,04,09,48,10.10
2019,04,04,09,49,10.10
2019,04,04,09,50,10.10
2019,04,04,09,51,10.10
2019,04,04,09,52,10.10
2019,04,04,09,53,10.20
2019,04,04,09,54,10.20
2019,04,04,09,55,10.30
2019,04,04,09,56,10.30
2019,04,04,09,57,10.40
2019,04,04,09,58,10.50
2019,04,04,09,59,10.50
2019,04,04,10,00,10.60
2019,04,04,10,01,10.70
2019,04,04,10,02,10.70
2019,04,04,10,03,10.80
2019,04,04,10,04,10.80
2019,04,04,10,05,10.90
2019,04,04,10,06,10.90
2019,04,04,10,07,10.90
2019,04,04,10,08,10.90
2019,04,04,10,09,10.90
2019,04,04,10,10,10.90
2019,04,04,10,11,10.90
2019,04,04,10,12,10.90
2019,04,04,10,13,10.90
2019,04,04,10,14,10.90
2019,04,04,10,15,10.90
2019,04,04,10,16,10.90
2019,04,04,10,17,10.90
2019,04,04,10,18,10.80
2019,04,04,10,19,10.70
2019,04,04,10,20,10.60
2019,04,04,10,21,10.60
2019,04,04,10,22,10.50
2019,04,04,10,23,10.40
2019,04,04,10,24,10.40
2019,04,04,10,25,10.40
2019,04,04,10,26,10.40
2019,04,04,10,27,10.50
2019,04,04,10,28,10.50
2019,04,04,10,29,10.60
2019,04,04,10,30,10.70
2019,04,04,10,31,10.80
2019,04,04,10,32,10.80
2019,04,04,10,33,10.80
2019,04,04,10,34,10.80
2019,04,04,10,35,10.80
2019,04,04,10,36,10.80
2019,04,04,10,37,10.80
2019,04,04,10,38,10.80
2019,04,04,10,39,10.80
2019,04,04,10,40,10.70
2019,04,04,10,41,10.70
2019,04,04,10,42,10.70
2019,04,04,10,43,10.80
2019,04,04,10,44,10.70
2019,04,04,10,45,10.70
2019,04,04,10,46,10.70
2019,04,04,10,47,10.70
2019,04,04,10,48,10.70
2019,04,04,10,49,10.70
2019,04,04,10,50,10.70
2019,04,04,10,51,10.70
2019,04,04,10,52,10.80
2019,04,04,10,53,10.80
2019,04,04,10,54,10.80
2019,04,04,10,55,10.80
2019,04,04,10,56,10.80
2019,04,04,10,57,10.80
2019,04,04,10,58,10.80
2019,04,04,10,59,10.80
2019,04,04,11,00,10.80
2019,04,04,11,01,10.80
2019,04,04,11,02,10.70
2019,04,04,11,03,10.70
2019,04,04,11,04,10.60
2019,04,04,11,05,10.60
2019,04,04,11,06,10.60
2019,04,04,11,07,10.60
2019,04,04,11,08,10.70
2019,04,04,11,09,10.70
2019,04,04,11,10,10.70
2019,04,04,11,11,10.60
2019,04,04,11,12,10.60
2019,04,04,11,13,10.60
2019,04,04,11,14,10.60
2019,04,04,11,15,10.60
2019,04,04,11,16,10.60
2019,04,04,11,17,10.60
2019,04,04,11,18,10.60
2019,04,04,11,19,10.60
2019,04,04,11,20,10.60
2019,04,04,11,21,10.60
2019,04,04,11,22,10.60
2019,04,04,11,23,10.60
2019,04,04,11,24,10.60
2019,04,04,11,25,10.60
2019,04,04,11,26,10.60
2019,04,04,11,27,10.70
2019,04,04,11,28,10.70
2019,04,04,11,29,10.70
2019,04,04,11,30,10.70
2019,04,04,11,31,10.70
2019,04,04,11,32,10.70
2019,04,04,11,33,10.80
2019,04,04,11,34,10.80
2019,04,04,11,35,10.80
2019,04,04,11,36,10.80
2019,04,04,11,37,10.80
2019,04,04,11,38,10.80
2019,04,04,11,39,10.70
2019,04,04,11,40,10.70
2019,04,04,11,41,10.70
2019,04,04,11,42,10.70
2019,04,04,11,43,10.80
2019,04,04,11,44,10.80
2019,04,04,11,45,10.80
2019,04,04,11,46,10.80
2019,04,04,11,47,10.80
2019,04,04,11,48,10.80
2019,04,04,11,49,10.80
2019,04,04,11,50,10.90
2019,04,04,11,51,10.80
2019,04,04,11,52,10.80
2019,04,04,11,53,10.70
2019,04,04,11,54,10.70
2019,04,04,11,55,10.70
2019,04,04,11,56,10.70
2019,04,04,11,57,10.70
2019,04,04,11,58,10.70
2019,04,04,11,59,10.70
2019,04,04,12,00,10.70
2019,04,04,12,01,10.60
2019,04,04,12,02,10.70
2019,04,04,12,03,10.70
2019,04,04,12,04,10.80
2019,04,04,12,05,10.80
2019,04,04,12,06,10.90
2019,04,04,12,07,10.90
2019,04,04,12,08,11.00
2019,04,04,12,09,11.00
2019,04,04,12,10,11.10
2019,04,04,12,11,11.10
2019,04,04,12,12,11.00
2019,04,04,12,13,10.90
2019,04,04,12,14,10.90
2019,04,04,12,15,10.90
2019,04,04,12,16,10.90
2019,04,04,12,17,10.80
2019,04,04,12,18,10.80
2019,04,04,12,19,10.80
2019,04,04,12,20,10.70
2019,04,04,12,21,10.70
2019,04,04,12,22,10.60
2019,04,04,12,23,10.70
2019,04,04,12,24,10.70
2019,04,04,12,25,10.70
2019,04,04,12,26,10.70
2019,04,04,12,27,10.80
2019,04,04,12,28,10.80
2019,04,04,12,29,10.80
2019,04,04,12,30,10.90
2019,04,04,12,31,10.90
2019,04,04,12,32,10.90
2019,04,04,12,33,11.00
2019,04,04,12,34,10.90
2019,04,04,12,35,10.90
2019,04,04,12,36,10.90
2019,04,04,12,37,10.90
2019,04,04,12,38,10.90
2019,04,04,12,39,11.00
2019,04,04,12,40,11.00
2019,04,04,12,41,11.10
2019,04,04,12,42,11.10
2019,04,04,12,43,11.10
2019,04,04,12,44,11.20
2019,04,04,12,45,11.20
2019,04,04,12,46,11.30
2019,04,04,12,47,11.30
2019,04,04,12,48,11.30
2019,04,04,12,49,11.30
2019,04,04,12,50,11.30
2019,04,04,12,51,11.30
2019,04,04,12,52,11.40
2019,04,04,12,53,11.40
2019,04,04,12,54,11.40
2019,04,04,12,55,11.40
2019,04,04,12,56,11.40
2019,04,04,12,57,11.40
2019,04,04,12,58,11.50
2019,04,04,12,59,11.40
2019,04,04,13,00,11.50
2019,04,04,13,01,11.60
2019,04,04,13,02,11.60
2019,04,04,13,03,11.60
2019,04,04,13,04,11.60
2019,04,04,13,05,11.60
2019,04,04,13,06,11.60
2019,04,04,13,07,11.70
2019,04,04,13,08,11.60
2019,04,04,13,09,11.60
2019,04,04,13,10,11.60
2019,04,04,13,11,11.60
2019,04,04,13,12,11.60
2019,04,04,13,13,11.60
2019,04,04,13,14,11.60
2019,04,04,13,15,11.50
2019,04,04,13,16,11.40
2019,04,04,13,17,11.30
2019,04,04,13,18,11.30
2019,04,04,13,19,11.20
2019,04,04,13,20,11.20
2019,04,04,13,21,11.30
2019,04,04,13,22,11.30
2019,04,04,13,23,11.30
2019,04,04,13,24,11.30
2019,04,04,13,25,11.30
2019,04,04,13,26,11.30
2019,04,04,13,27,11.30
2019,04,04,13,28,11.40
2019,04,04,13,29,11.40
2019,04,04,13,30,11.40
2019,04,04,13,31,11.40
2019,04,04,13,32,11.30
2019,04,04,13,33,11.40
2019,04,04,13,34,11.40
2019,04,04,13,35,11.50
2019,04,04,13,36,11.60
2019,04,04,13,37,11.60
2019,04,04,13,38,11.60
2019,04,04,13,39,11.60
2019,04,04,13,40,11.60
2019,04,04,13,41,11.60
2019,04,04,13,42,11.70
2019,04,04,13,43,11.60
2019,04,04,13,44,11.60
2019,04,04,13,45,11.60
2019,04,04,13,46,11.50
2019,04,04,13,47,11.50
2019,04,04,13,48,11.50
2019,04,04,13,49,11.60
2019,04,04,13,50,11.60
2019,04,04,13,51,11.60
2019,04,04,13,52,11.70
2019,04,04,13,53,11.70
2019,04,04,13,54,11.70
2019,04,04,13,55,11.80
2019,04,04,13,56,11.80
2019,04,04,13,57,11.80
2019,04,04,13,58,11.80
2019,04,04,13,59,11.90
2019,04,04,14,00,11.90
2019,04,04,14,01,12.00
2019,04,04,14,02,12.10
2019,04,04,14,03,12.10
2019,04,04,14,04,12.10
2019,04,04,14,05,12.20
2019,04,04,14,06,12.20
2019,04,04,14,07,12.10
2019,04,04,14,08,12.10
2019,04,04,14,09,12.20
2019,04,04,14,10,12.20
2019,04,04,14,11,12.10
2019,04,04,14,12,12.10
2019,04,04,14,13,12.10
2019,04,04,14,14,12.10
2019,04,04,14,15,12.10
2019,04,04,14,16,12.10
2019,04,04,14,17,12.10
2019,04,04,14,18,12.10
2019,04,04,14,19,12.20
2019,04,04,14,20,12.30
2019,04,04,14,21,12.20
2019,04,04,14,22,12.20
2019,04,04,14,23,12.20
2019,04,04,14,24,12.20
2019,04,04,14,25,12.20
2019,04,04,14,26,12.30
2019,04,04,14,27,12.30
2019,04,04,14,28,12.40
2019,04,04,14,29,12.40
2019,04,04,14,30,12.40
2019,04,04,14,31,12.50
2019,04,04,14,32,12.50
2019,04,04,14,33,12.60
2019,04,04,14,34,12.60
2019,04,04,14,35,12.60
2019,04,04,14,36,12.60
2019,04,04,14,37,12.60
2019,04,04,14,38,12.60
2019,04,04,14,39,12.70
2019,04,04,14,40,12.80
2019,04,04,14,41,12.80
2019,04,04,14,42,12.90
2019,04,04,14,43,12.90
2019,04,04,14,44,12.90
2019,04,04,14,45,12.90
2019,04,04,14,46,12.90
2019,04,04,14,47,12.90
2019,04,04,14,48,13.00
2019,04,04,14,49,13.00
2019,04,04,14,50,13.10
2019,04,04,14,51,13.00
2019,04,04,14,52,13.00
2019,04,04,14,53,13.10
2019,04,04,14,54,13.10
2019,04,04,14,55,13.00
2019,04,04,14,56,13.00
2019,04,04,14,57,13.00
2019,04,04,14,58,13.00
2019,04,04,14,59,13.00
2019,04,04,15,00,13.00
2019,04,04,15,01,12.80
2019,04,04,15,02,12.70
2019,04,04,15,03,12.70
2019,04,04,15,04,12.70
2019,04,04,15,05,12.80
2019,04,04,15,06,12.70
2019,04,04,15,07,12.70
2019,04,04,15,08,12.70
2019,04,04,15,09,12.70
2019,04,04,15,10,12.70
2019,04,04,15,11,12.70
2019,04,04,15,12,12.80
2019,04,04,15,13,12.80
2019,04,04,15,14,12.80
2019,04,04,15,15,12.90
2019,04,04,15,16,12.90
2019,04,04,15,17,13.00
2019,04,04,15,18,13.00
2019,04,04,15,19,13.00
2019,04,04,15,20,13.00
2019,04,04,15,21,13.10
2019,04,04,15,22,13.10
2019,04,04,15,23,13.10
2019,04,04,15,24,13.10
2019,04,04,15,25,13.10
2019,04,04,15,26,13.10
2019,04,04,15,27,13.10
2019,04,04,15,28,13.10
2019,04,04,15,29,13.00
2019,04,04,15,30,12.90
2019,04,04,15,31,12.90
2019,04,04,15,32,12.90
2019,04,04,15,33,12.80
2019,04,04,15,34,12.80
2019,04,04,15,35,12.80
2019,04,04,15,36,12.80
2019,04,04,15,37,12.90
2019,04,04,15,38,12.90
2019,04,04,15,39,12.90
2019,04,04,15,40,12.90
2019,04,04,15,41,13.00
2019,04,04,15,42,13.00
2019,04,04,15,43,13.00
2019,04,04,15,44,13.10
2019,04,04,15,45,13.10
2019,04,04,15,46,13.10
2019,04,04,15,47,13.10
2019,04,04,15,48,13.20
2019,04,04,15,49,13.20
2019,04,04,15,50,13.20
2019,04,04,15,51,13.20
2019,04,04,15,52,13.20
2019,04,04,15,53,13.20
2019,04,04,15,54,13.30
2019,04,04,15,55,13.20
2019,04,04,15,56,13.30
2019,04,04,15,57,13.20
2019,04,04,15,58,13.20
2019,04,04,15,59,13.20
2019,04,04,16,00,13.20
2019,04,04,16,01,13.10
2019,04,04,16,02,13.10
2019,04,04,16,03,13.10
2019,04,04,16,04,13.10
2019,04,04,16,05,13.20
2019,04,04,16,06,13.30
2019,04,04,16,07,13.30
2019,04,04,16,08,13.40
2019,04,04,16,09,13.40
2019,04,04,16,10,13.50
2019,04,04,16,11,13.50
2019,04,04,16,12,13.50
2019,04,04,16,13,13.60
2019,04,04,16,14,13.60
2019,04,04,16,15,13.60
2019,04,04,16,16,13.60
2019,04,04,16,17,13.60
2019,04,04,16,18,13.70
2019,04,04,16,19,13.70
2019,04,04,16,20,13.60
2019,04,04,16,21,13.60
2019,04,04,16,22,13.60
2019,04,04,16,23,13.60
2019,04,04,16,24,13.60
2019,04,04,16,25,13.60
2019,04,04,16,26,13.60
2019,04,04,16,27,13.50
2019,04,04,16,28,13.50
2019,04,04,16,29,13.50
2019,04,04,16,30,13.50
2019,04,04,16,31,13.60
2019,04,04,16,32,13.60
2019,04,04,16,33,13.60
2019,04,04,16,34,13.60
2019,04,04,16,35,13.60
2019,04,04,16,36,13.60
2019,04,04,16,37,13.60
2019,04,04,16,38,13.60
2019,04,04,16,39,13.60
2019,04,04,16,40,13.60
2019,04,04,16,41,13.60
2019,04,04,16,42,13.60
2019,04,04,16,43,13.60
2019,04,04,16,44,13.60
2019,04,04,16,45,13.60
2019,04,04,16,46,13.50
2019,04,04,16,47,13.50
2019,04,04,16,48,13.60
2019,04,04,16,49,13.60
2019,04,04,16,50,13.60
2019,04,04,16,51,13.50
2019,04,04,16,52,13.50
2019,04,04,16,53,13.50
2019,04,04,16,54,13.40
2019,04,04,16,55,13.40
2019,04,04,16,56,13.40
2019,04,04,16,57,13.40
2019,04,04,16,58,13.30
2019,04,04,16,59,13.30
2019,04,04,17,00,13.30
2019,04,04,17,01,13.30
2019,04,04,17,02,13.30
2019,04,04,17,03,13.30
2019,04,04,17,04,13.30
2019,04,04,17,05,13.30
2019,04,04,17,06,13.30
2019,04,04,17,07,13.40
2019,04,04,17,08,13.40
2019,04,04,17,09,13.40
2019,04,04,17,10,13.40
2019,04,04,17,11,13.40
2019,04,04,17,12,13.40
2019,04,04,17,13,13.40
2019,04,04,17,14,13.50
2019,04,04,17,15,13.50
2019,04,04,17,16,13.50
2019,04,04,17,17,13.50
2019,04,04,17,18,13.40
2019,04,04,17,19,13.40
2019,04,04,17,20,13.50
2019,04,04,17,21,13.50
2019,04,04,17,22,13.50
2019,04,04,17,23,13.50
2019,04,04,17,24,13.50
2019,04,04,17,25,13.60
2019,04,04,17,26,13.60
2019,04,04,17,27,13.60
2019,04,04,17,28,13.60
2019,04,04,17,29,13.60
2019,04,04,17,30,13.60
2019,04,04,17,31,13.70
2019,04,04,17,32,13.70
2019,04,04,17,33,13.70
2019,04,04,17,34,13.70
2019,04,04,17,35,13.70
2019,04,04,17,36,13.80
2019,04,04,17,37,13.80
2019,04,04,17,38,13.80
2019,04,04,17,39,13.80
2019,04,04,17,40,13.90
2019,04,04,17,41,13.90
2019,04,04,17,42,13.90
2019,04,04,17,43,13.90
2019,04,04,17,44,13.90